EHI
0 0 0 0 0 0 0 0 0 0 0 0 0 0 0 0 0 0 0 1 2 3 3 3 3 2 1 0 1 2 4 3 2 3 6 5 3 2 2 1 0 0 0 0
0 0 0 0 0 0 0 0 0 0 0 0 0 0 0 0 0 0 0 0 1 1 2 2 3 2 1 0 0 1 3 2 2 3 4 4 2 1 1 0 0 0 0 0
0 0 0 0 0 0 0 0 0 0 0 0 0 0 0 0 0 0 0 0 0 0 0 1 1 1 1 0 0 0 1 2 2 2 3 2 1 0 0 0 0 0 0 0
0 0 0 0 0 0 0 0 0 0 0 0 0 0 0 0 0 0 0 0 0 0 0 0 0 0 0 0 0 0 1 2 2 1 1 0 0 0 0 0 0 0 0 0
0 0 0 0 0 0 0 0 0 0 0 0 0 0 0 0 0 0 0 0 0 0 0 0 0 0 0 0 0 0 0 1 1 0 0 0 0 0 0 0 0 0 0 0
0 0 0 0 0 0 0 0 0 0 0 0 0 0 0 0 0 0 0 0 0 0 0 0 0 0 0 0 0 0 0 0 0 0 0 0 0 0 0 0 0 0 0 0
0 0 0 0 0 0 0 0 0 0 0 0 0 0 0 0 0 0 0 0 0 0 0 0 0 0 0 0 0 0 0 0 0 0 0 0 0 0 0 0 0 0 0 0
0 0 0 0 0 0 0 0 0 0 0 0 0 0 0 0 0 0 0 0 0 0 0 0 0 0 0 0 0 0 0 0 0 0 0 0 0 0 0 0 0 0 0 0
0 0 0 0 0 0 0 0 0 0 0 0 0 0 0 0 0 0 0 0 0 0 0 0 0 0 0 0 0 0 0 0 0 0 0 0 0 0 0 0 0 0 0 0
0 0 0 0 0 0 0 0 0 0 0 0 0 0 0 0 0 0 0 0 0 0 0 0 0 0 0 0 0 0 0 0 0 0 0 0 0 0 0 0 0 0 0 0
0 0 0 0 0 0 0 0 0 0 0 0 0 0 0 0 0 0 0 0 0 0 0 0 0 0 0 0 0 0 0 0 0 0 0 0 0 0 0 0 0 0 0 0
0 0 0 0 0 0 0 0 0 0 0 0 0 0 0 0 0 0 0 0 0 0 0 0 0 0 0 0 0 0 0 0 0 0 1 0 0 0 0 0 0 0 0 0
0 0 0 0 0 0 0 0 0 0 0 0 0 0 0 0 0 0 0 0 0 0 0 0 0 0 0 0 0 0 0 0 0 0 0 0 0 0 0 0 0 0 0 0
0 0 0 0 0 0 0 0 0 0 0 0 0 0 0 0 0 0 0 0 0 0 0 0 0 0 0 0 0 0 0 0 0 0 0 0 0 0 0 0 0 0 0 0
0 0 0 0 0 0 0 0 0 0 0 0 0 0 0 0 0 0 0 0 0 0 0 0 0 0 0 0 0 0 0 0 0 0 0 0 0 0 0 0 0 0 0 0
0 0 0 0 0 0 0 0 0 0 0 0 0 0 0 0 0 0 0 0 0 0 0 0 0 0 0 0 0 0 0 0 0 0 0 0 0 0 0 0 0 0 0 0
0 0 0 0 0 0 0 0 0 0 0 0 0 0 0 0 0 0 0 0 0 0 0 0 0 0 0 0 0 0 0 0 0 0 0 0 0 0 0 0 0 0 0 0
0 0 0 0 0 0 0 0 0 0 0 0 0 0 0 0 0 0 0 0 0 0 0 0 0 0 0 0 0 0 0 0 0 0 0 0 0 0 0 0 0 0 0 0
0 0 0 0 0 0 0 0 0 0 0 0 0 0 0 0 0 0 0 0 0 0 0 0 0 0 0 0 0 0 0 0 0 0 0 0 0 0 0 0 0 0 0 0
0 0 0 0 0 0 0 0 0 0 0 0 0 0 0 0 0 0 0 0 0 0 0 0 0 0 0 0 0 0 1 1 1 0 0 0 0 0 0 0 0 0 0 0
0 0 0 0 0 0 0 0 0 0 0 0 0 0 0 0 0 0 0 0 0 0 0 0 0 0 0 0 0 0 1 2 1 0 0 0 0 0 0 0 0 0 0 0
0 0 0 0 0 0 0 0 0 0 0 0 0 0 0 0 0 0 0 0 0 0 0 0 0 0 0 0 0 0 1 1 1 0 0 0 0 0 0 0 0 0 0 0
0 0 0 0 0 0 0 0 0 0 0 0 0 0 0 0 0 0 0 0 0 0 0 0 0 0 0 0 0 0 0 0 0 0 0 0 0 0 0 0 0 0 0 0
0 0 0 0 0 0 0 0 0 0 0 0 0 0 0 0 0 0 0 0 0 0 0 0 0 0 0 0 0 0 0 0 0 0 0 0 0 0 0 0 0 0 0 0
0 0 0 0 0 0 0 0 0 0 0 0 0 0 0 0 0 0 0 0 0 0 0 0 0 0 0 0 0 0 0 0 0 0 0 0 0 0 0 0 0 0 0 0
0 0 0 0 0 0 0 0 0 0 0 0 0 0 0 0 0 0 0 0 0 0 0 0 0 0 0 0 0 0 0 0 0 0 0 0 0 0 0 0 0 0 0 0
Wind_Speed
1 2 2 3 4 4 4 6 7 6 5 6 9 11 10 8 8 8 7 6 5 5 5 5 5 4 3 3 2 3 2 2 2 2 2 2 2 2 2 2 2 3 4 4
2 2 3 3 2 3 5 6 7 6 4 6 9 12 11 9 9 8 7 7 6 6 6 5 5 4 4 4 3 4 4 4 3 3 2 2 2 1 1 2 2 2 3 4
2 1 1 3 3 4 5 7 7 7 7 6 8 10 8 6 6 5 6 6 6 6 6 5 4 4 4 4 4 4 5 4 4 3 1 1 1 1 1 2 2 2 3 3
2 2 3 3 3 5 6 6 7 7 7 4 4 7 6 5 5 5 6 6 6 5 6 5 4 4 4 4 3 4 4 3 3 3 3 3 3 2 3 2 2 2 3 3
1 1 2 3 4 4 4 5 5 6 6 7 6 7 6 4 6 6 6 6 5 5 5 4 5 5 4 4 3 4 4 3 3 3 4 4 3 2 2 2 2 2 2 2
2 2 2 3 3 3 3 3 3 4 4 7 6 7 6 3 5 6 4 4 4 4 4 4 4 4 4 3 3 3 4 4 4 4 4 5 4 3 3 3 3 3 2 2
1 1 1 2 2 1 2 3 2 2 3 5 1 6 7 4 5 5 5 3 2 2 2 3 3 4 4 3 3 3 4 3 3 4 4 4 5 5 5 5 4 4 3 3
2 2 1 1 2 3 2 3 3 4 4 4 3 7 5 3 4 4 3 2 2 2 2 3 3 4 3 3 3 3 3 3 3 3 3 4 4 4 4 5 4 4 3 3
2 2 1 1 2 3 3 3 3 3 4 6 6 6 6 4 5 5 4 3 4 3 3 3 3 3 3 3 3 3 2 3 3 3 2 3 3 4 4 4 4 3 3 3
2 4 2 2 1 1 3 2 2 3 4 6 6 6 5 5 5 5 4 4 5 4 4 4 4 4 3 3 3 2 2 2 2 2 2 2 3 3 3 3 3 3 4 3
2 3 2 2 3 3 2 2 3 3 4 5 7 4 2 4 4 5 5 5 6 5 4 4 5 4 3 3 2 2 1 2 1 2 2 2 2 2 2 2 3 3 3 4
1 2 4 4 1 3 4 4 4 4 4 4 6 5 2 3 5 5 6 5 5 5 5 5 4 4 3 3 2 2 1 2 1 1 2 2 2 2 2 2 2 3 3 4
2 2 3 2 3 2 3 3 4 3 3 5 6 6 2 4 5 5 6 6 6 6 6 5 5 4 4 3 3 2 1 1 2 1 1 1 1 1 2 2 2 2 3 4
2 3 5 6 5 2 5 5 5 5 5 7 10 11 9 8 9 9 8 8 7 6 6 5 4 4 3 3 3 3 2 2 2 1 1 1 1 1 1 1 1 2 2 3
1 4 5 8 8 5 7 8 8 9 10 9 11 12 13 11 11 10 9 8 7 7 6 5 4 4 3 3 3 2 2 1 1 1 1 1 1 1 1 1 1 1 1 2
0 3 3 6 5 6 8 9 9 10 10 12 14 14 11 11 9 9 7 7 7 6 6 5 4 3 3 3 3 2 2 2 1 1 1 1 1 1 1 1 1 1 1 1
2 2 3 5 5 5 8 8 9 7 8 8 11 10 8 9 9 9 8 7 7 6 6 5 4 3 3 2 2 2 2 1 1 1 2 2 1 1 1 1 1 1 1 1
3 3 2 4 3 7 2 1 4 7 9 9 10 10 9 9 9 8 7 7 7 6 5 4 3 3 2 2 1 1 1 1 1 1 2 2 1 1 1 1 1 1 1 1
4 4 3 2 5 9 5 2 3 5 7 6 10 11 9 8 8 6 4 5 6 5 5 4 3 2 2 2 1 1 1 1 1 1 2 2 1 1 1 1 1 1 1 1
1 2 3 3 5 7 2 1 1 2 6 2 5 7 6 5 5 5 5 5 5 5 4 3 3 2 2 2 1 1 1 1 1 2 2 2 1 1 1 1 1 1 1 0
3 3 5 6 7 8 1 1 3 4 4 2 4 5 4 4 6 6 6 6 5 5 5 3 2 2 2 1 1 1 1 2 2 2 2 2 1 1 1 1 0 0 0 0
6 5 6 5 7 7 3 5 6 4 3 3 4 4 5 5 6 6 5 5 5 5 4 3 2 2 2 2 1 1 2 2 2 2 1 2 2 1 1 0 0 0 0 0
7 6 4 8 7 3 5 6 4 3 5 5 5 5 5 5 6 5 5 4 4 4 4 3 2 2 2 2 1 1 2 2 1 1 1 2 2 2 1 1 0 0 1 1
5 4 5 7 10 8 8 8 7 6 7 7 6 5 5 5 5 5 5 4 4 4 3 2 2 2 2 2 2 2 2 1 1 0 1 1 1 1 1 1 1 1 1 1
4 5 5 9 9 8 8 9 9 7 7 7 6 5 5 5 5 5 4 4 3 3 3 2 2 2 3 2 2 2 2 1 1 1 1 1 1 1 1 1 1 1 1 2
7 8 8 8 6 6 6 5 6 7 7 7 6 5 5 4 4 3 3 3 3 3 2 2 2 3 3 3 3 2 1 1 1 1 1 1 1 1 1 1 1 1 1 2
Wind_Direction
57 188 207 225 236 255 258 256 267 275 287 277 265 272 274 268 257 253 253 252 253 258 264 258 248 242 243 237 230 230 219 206 185 192 191 189 201 201 195 200 200 191 188 189
173 230 266 261 242 237 242 251 268 279 289 281 276 276 273 265 255 255 256 253 252 256 259 256 250 249 242 234 230 228 224 213 198 208 213 211 208 216 201 197 201 201 202 194
218 304 297 227 231 241 250 255 267 281 298 268 275 269 250 244 246 256 259 262 262 257 258 257 258 259 256 247 243 237 228 222 211 205 192 164 168 195 203 208 210 210 213 205
256 268 246 251 261 257 260 269 272 274 279 279 276 282 263 255 256 257 252 252 256 257 254 254 256 255 255 254 252 246 228 221 215 199 187 183 199 211 235 235 224 217 216 213
224 255 254 253 275 261 263 290 276 265 264 274 253 259 268 257 262 263 252 248 250 252 250 247 249 250 254 253 248 243 220 212 214 205 195 198 211 219 219 215 212 212 218 216
270 270 283 285 300 266 262 274 262 244 244 257 247 246 270 254 279 286 276 255 245 242 251 255 254 252 261 252 240 234 218 214 215 210 205 207 210 209 207 212 212 209 209 213
295 227 248 269 276 226 253 264 269 240 231 250 227 245 258 287 297 293 283 268 265 241 245 257 260 260 250 245 246 242 229 224 226 219 216 215 215 212 211 213 214 213 210 217
286 261 209 259 258 266 252 256 267 276 275 289 260 248 264 333 324 313 301 296 302 294 286 282 278 272 255 251 249 249 244 240 235 224 225 223 227 224 220 219 219 219 220 220
268 273 34 301 292 256 231 228 289 273 280 274 260 271 280 311 316 316 306 311 318 310 304 299 304 309 290 269 267 260 254 245 236 233 229 224 229 236 236 233 227 222 221 213
264 270 284 308 239 286 284 242 229 243 270 272 272 269 283 296 301 305 305 307 309 308 308 314 312 306 294 282 277 270 262 249 239 233 226 223 229 237 238 231 228 224 220 213
238 248 272 236 229 243 198 202 235 240 272 275 283 281 324 294 314 312 312 315 314 317 312 307 303 296 298 301 293 281 274 269 245 240 237 238 238 244 237 231 231 225 219 212
217 252 260 250 275 298 254 237 219 243 248 253 276 284 31 317 322 317 319 318 314 317 314 315 312 308 312 309 304 299 287 283 272 262 249 242 229 224 233 237 237 225 218 216
182 214 273 238 200 208 246 243 232 245 254 246 255 271 49 332 323 316 312 311 311 316 319 318 318 324 324 326 316 309 296 313 313 283 258 250 228 223 234 240 236 226 214 213
205 220 243 269 299 270 258 251 226 216 235 250 249 272 289 300 305 307 307 307 309 313 315 314 314 319 325 331 324 319 325 349 328 300 280 282 287 269 265 255 241 229 215 209
231 244 249 269 279 268 265 261 226 220 234 248 268 274 284 299 305 306 306 307 310 310 312 311 309 311 322 336 335 334 338 346 335 310 317 336 333 336 346 330 288 260 230 218
271 246 263 271 266 272 273 267 246 241 246 253 268 275 284 296 302 302 303 305 303 303 304 305 305 310 324 333 333 340 346 345 344 337 350 351 352 358 358 354 331 289 252 222
186 201 253 271 304 285 263 248 228 233 234 238 251 268 295 300 303 302 304 302 298 301 301 301 303 313 319 318 322 329 331 349 10 357 357 354 351 356 346 346 306 272 265 228
185 193 244 286 295 253 269 103 230 241 251 240 258 279 290 294 304 300 302 304 302 303 303 308 314 317 317 319 331 334 341 23 25 1 360 359 348 332 330 335 300 288 298 253
214 206 221 247 268 274 271 214 209 236 266 245 254 273 286 304 298 288 308 311 303 306 312 316 320 324 331 340 348 0 25 40 29 4 355 347 336 337 333 314 305 309 286 271
131 198 219 224 255 264 298 92 285 238 262 245 254 267 285 304 293 310 335 317 312 316 321 326 335 333 338 352 5 33 35 28 359 345 342 335 323 302 288 291 305 296 266 251
178 195 217 231 249 266 282 140 186 230 298 321 254 261 262 263 281 310 314 313 322 324 327 335 345 339 340 354 9 20 14 354 339 342 346 337 320 293 284 292 321 297 260 202
197 195 205 210 233 256 144 155 210 268 330 284 273 266 265 277 295 301 305 312 323 329 331 333 336 340 352 7 32 1 334 337 344 349 344 333 327 322 312 327 337 309 189 204
218 215 211 212 234 301 188 221 260 294 279 278 278 277 274 278 285 295 302 307 314 320 325 332 332 343 350 354 16 343 328 337 345 352 339 334 332 327 322 298 281 273 244 232
221 219 236 254 262 265 257 259 265 267 270 275 278 277 269 272 279 285 292 300 306 315 325 332 335 339 336 341 337 325 331 324 301 320 318 322 317 320 331 311 273 253 244 240
228 193 227 253 270 281 259 253 260 265 269 274 274 271 267 270 277 278 284 289 295 305 314 319 314 311 317 329 321 323 327 317 298 302 301 299 296 308 324 318 301 281 271 267
207 206 217 244 244 240 269 282 272 261 260 260 267 276 272 262 268 276 281 288 290 296 304 306 303 303 310 318 316 323 313 285 280 298 300 290 293 305 301 304 351 16 291 301